[[{"header":{"parameterUnit":"m.s-1","parameterCategory":1,"la1":30.2992,"la2":30.254,"lo1":-89.0895,"lo2":-89.0443,"dy":0.0025,"dx":0.0025,"nx":19,"ny":19,"refTime":"2026-05-19T09:00:00:Z","depth":0,"parameterNumber":2,"parameterNumberName":"U-component_of_WINDS"},"data":[0,0,0,-0.809,-0.809,-0.8112,-0.8112,-0.8142,-0.8142,0,0,0,0,0,0,0,0,0,0,0,-0.8084,-0.8084,-0.809,-0.8091,-0.8112,-0.8112,-0.8142,-0.8142,0,0,0,0,0,0,0,0,0,0,0,-0.8084,-0.8084,-0.8084,-0.8091,-0.8112,-0.8112,-0.8142,-0.8125,0,0,0,0,0,0,0,0,0,0,-0.8103,-0.8098,-0.8084,-0.8084,-0.8091,-0.8112,-0.8112,-0.8124,-0.8126,-0.8132,0,-0.8138,0,-0.814,-0.8144,-0.8144,0,0,0,-0.809,-0.8096,-0.8102,-0.8084,-0.8091,-0.8112,-0.8102,-0.8125,-0.8127,-0.8135,-0.8138,-0.8139,-0.8141,-0.8144,-0.8144,-0.8181,-0.8182,0,0,-0.8089,-0.8088,-0.81,-0.8103,-0.8099,-0.8102,-0.8103,-0.8126,-0.813,-0.8138,-0.814,-0.8141,-0.8144,-0.8145,-0.8181,-0.8182,0,0,0,-0.8086,-0.8087,-0.8092,-0.8102,-0.8106,-0.8102,-0.8104,-0.8129,-0.8131,-0.814,-0.8142,-0.8145,-0.8145,-0.8181,-0.8181,-0.8189,0,0,0,-0.8085,-0.8085,-0.8092,-0.8091,-0.8105,-0.8117,-0.8106,-0.8129,-0.8132,-0.8141,-0.8145,-0.8145,-0.8181,-0.8181,-0.8188,-0.8193,0,0,0,-0.8082,-0.8085,-0.8088,-0.8091,-0.81,-0.8117,-0.812,-0.813,-0.8133,-0.8144,-0.8145,-0.8181,-0.8181,-0.8188,-0.8192,-0.8202,0,0,0,-0.8079,-0.8094,-0.8088,-0.8106,-0.81,-0.8122,-0.812,-0.8136,-0.8147,-0.8145,-0.8181,-0.8181,-0.8188,-0.8191,-0.8202,-0.8211,-0.8214,0,0,-0.8098,-0.8096,-0.8107,-0.8102,-0.8124,-0.8118,-0.8142,-0.8153,-0.8156,-0.8173,-0.8174,-0.8189,-0.8192,-0.8202,-0.8236,-0.8239,0,0,0,-0.8113,-0.812,-0.8126,-0.8137,-0.8146,-0.8154,-0.8162,-0.8166,-0.8181,-0.8164,-0.8195,-0.8197,-0.8203,-0.8208,-0.821,-0.8216,-0.8183,-0.8183,-0.8183,-0.8137,-0.8139,-0.8157,-0.8162,-0.8172,-0.8181,-0.8189,-0.8197,-0.8196,-0.8203,-0.8208,-0.8228,-0.8234,-0.8235,-0.8241,-0.8214,-0.8214,-0.8214,-0.8214,-0.8164,-0.8175,-0.8175,-0.8192,-0.8195,-0.8209,-0.8218,-0.8218,-0.8232,-0.8225,-0.823,-0.8222,-0.8239,-0.8244,-0.8214,-0.8214,-0.8214,-0.8214,-0.8214,-0.818,-0.8186,-0.8191,-0.8207,-0.8219,-0.8224,-0.8238,-0.824,-0.8242,-0.8248,-0.8253,-0.8253,-0.8253,-0.825,-0.825,-0.825,-0.8251,-0.8251,-0.8251,-0.8194,-0.82,-0.8211,-0.8223,-0.823,-0.824,-0.8249,-0.8257,-0.8266,-0.8266,-0.8266,-0.8265,-0.824,-0.8233,-0.8252,-0.8252,-0.8251,-0.8251,-0.8251,-0.8221,-0.8215,-0.8233,-0.824,-0.8254,-0.8266,-0.8269,-0.8285,-0.8291,-0.8298,-0.8296,-0.8277,-0.8276,-0.8274,-0.8269,-0.8295,-0.8295,-0.8295,-0.8295,-0.8234,-0.8234,-0.8253,-0.8264,-0.8276,-0.8281,-0.8301,-0.8309,-0.8317,-0.8321,-0.8318,-0.8311,-0.8309,-0.8309,-0.8306,-0.8301,-0.8336,-0.8336,-0.8336,-0.8251,-0.8252,-0.8268,-0.8275,-0.8287,-0.8297,-0.8316,-0.8331,-0.8338,-0.8337,-0.8325,-0.8323,-0.8312,-0.8308,-0.8307,-0.8302,-0.8293,0,0]},{"header":{"parameterUnit":"m.s-1","parameterCategory":1,"la1":30.2992,"la2":30.254,"lo1":-89.0895,"lo2":-89.0443,"dy":0.0025,"dx":0.0025,"nx":19,"ny":19,"refTime":"2026-05-19T09:00:00:Z","depth":0,"parameterNumber":3,"parameterNumberName":"V-component_of_WINDS"},"data":[0,0,0,2.2864,2.2865,2.2877,2.2877,2.2907,2.2907,0,0,0,0,0,0,0,0,0,0,0,2.2869,2.287,2.2864,2.2865,2.2877,2.2877,2.2907,2.2907,0,0,0,0,0,0,0,0,0,0,0,2.2869,2.287,2.287,2.2865,2.2877,2.2877,2.2907,2.2892,0,0,0,0,0,0,0,0,0,0,2.2878,2.2891,2.2869,2.287,2.2865,2.2877,2.2877,2.2892,2.2893,2.2907,0,2.2922,0,2.2915,2.291,2.291,0,0,0,2.2858,2.289,2.2885,2.287,2.2865,2.2877,2.287,2.2892,2.2894,2.291,2.2923,2.2923,2.2916,2.2911,2.2911,2.3013,2.3014,0,0,2.2858,2.2876,2.2884,2.2887,2.2886,2.2869,2.287,2.2893,2.2908,2.2923,2.2924,2.2916,2.2911,2.2911,2.3013,2.3014,0,0,0,2.286,2.2876,2.287,2.2886,2.2887,2.287,2.2871,2.2907,2.2904,2.2924,2.2917,2.2911,2.2912,2.3012,2.3013,2.307,0,0,0,2.2859,2.2877,2.2871,2.2882,2.2887,2.2898,2.2885,2.2902,2.2904,2.2917,2.2911,2.2912,2.3011,2.3012,2.3067,2.3094,0,0,0,2.2865,2.2878,2.2883,2.2883,2.2889,2.2897,2.2894,2.2902,2.29,2.291,2.2912,2.301,2.3012,2.3064,2.3089,2.3127,0,0,0,2.2877,2.2933,2.2884,2.2943,2.2889,2.2932,2.2894,2.2925,2.294,2.2911,2.3011,2.3013,2.3063,2.3086,2.3124,2.3163,2.3181,0,0,2.2958,2.2944,2.2977,2.2933,2.2989,2.2928,2.2993,2.2989,2.2973,2.3001,2.3003,2.3068,2.3089,2.3127,2.3273,2.3287,0,0,0,2.3009,2.3033,2.3044,2.3059,2.3058,2.3059,2.3043,2.3042,2.3065,2.2991,2.3091,2.3103,2.3124,2.3142,2.3154,2.3172,2.3022,2.3022,2.3021,2.315,2.3126,2.318,2.3158,2.3173,2.3156,2.3167,2.3162,2.3133,2.3157,2.3166,2.3257,2.3279,2.3288,2.3307,2.3184,2.3184,2.3184,2.3184,2.3267,2.3298,2.3258,2.3296,2.327,2.3302,2.3288,2.3266,2.3292,2.3249,2.3267,2.3223,2.3305,2.332,2.3188,2.3188,2.3187,2.3187,2.3186,2.3358,2.3369,2.3365,2.3385,2.3403,2.3378,2.3404,2.338,2.3357,2.3374,2.3381,2.338,2.3376,2.3379,2.3379,2.3379,2.338,2.338,2.338,2.3454,2.3449,2.3474,2.3476,2.3483,2.3488,2.3471,2.3477,2.3477,2.3457,2.3457,2.3427,2.3317,2.329,2.3385,2.3384,2.3383,2.3383,2.3383,2.3583,2.355,2.3589,2.3596,2.3596,2.3616,2.3583,2.3597,2.3598,2.3612,2.3577,2.3499,2.3483,2.3473,2.3451,2.3582,2.3582,2.3582,2.3582,2.3661,2.3649,2.3684,2.3696,2.3705,2.3679,2.3725,2.3712,2.3694,2.3693,2.367,2.3638,2.3629,2.3618,2.3605,2.3584,2.3746,2.3746,2.3746,2.3739,2.3727,2.3771,2.3752,2.375,2.375,2.3792,2.3807,2.3779,2.3752,2.3692,2.3685,2.3633,2.3617,2.359,2.3571,2.3531,0,0]}]]